Cheboygan, MI

4:33 PM EST on January 23, 2017 (GMT -0500)
Cheboygan

Weather History for KSLH - February, 2014

Change the Weather History Date:

Monday, February 24, 2014

  Actual Average (KMCD) Record (KMCD)
Temperature  
Mean Temperature 8 °F -  
Max Temperature 13 °F 26 °F 41 °F (1976)
Min Temperature 3 °F 15 °F -2 °F (1993)
Degree Days  
Heating Degree Days 57    
Moisture  
Dew Point 2 °F    
Average Humidity 73    
Maximum Humidity 85    
Minimum Humidity 56    
Precipitation  
Precipitation 0.00 in - - ()
Sea Level Pressure  
Sea Level Pressure 30.03 in    
Wind  
Wind Speed 11 mph (West)    
Max Wind Speed 20 mph    
Max Gust Speed 28 mph    
Visibility 8 miles    
Events Snow    
Averages and records for this station are not official NWS values.
T = Trace of Precipitation, MM = Missing Value Source: NWS Daily Summary

Daily Weather History Graph

Daily Weather History Graph

Search for Another Location

Airport or City:

Trip Planner

Search our weather history database for the weather conditions in past years. The results will help you decide how hot, cold, wet, or windy it might be!

Date:

Astronomy

Feb. 24, 2014 Rise Set
Actual Time 7:25 AM EST 6:17 PM EST
Civil Twilight 6:55 AM EST 6:47 PM EST
Nautical Twilight 6:20 AM EST 7:22 PM EST
Astronomical Twilight 5:46 AM EST 7:56 PM EST
Moon 3:32 AM EST (2/24) 1:08 PM EST (2/24)
Length of Visible Light 11h 52m
Length of Day
10h 52m
Waning Crescent, 28% of the Moon is Illuminated
Feb 24
Waning Crescent
Mar 1
New
Mar 8
First Quarter
Mar 16
Full
Mar 23
Last Quarter

Hourly Weather History & Observations

Time (EST) Temp. Windchill Dew Point Humidity Pressure Visibility Wind Dir Wind Speed Gust Speed Precip Events Conditions
12:15 AM 10.9 °F -3.4 °F 0.5 °F 63% 29.95 in 10.0 mi West 11.5 mph 18.4 mph N/A   Overcast
12:35 AM 11.3 °F -4.3 °F 1.6 °F 65% 29.95 in 10.0 mi West 13.8 mph 20.7 mph N/A   Overcast
12:56 AM 11.1 °F -5.7 °F 3.0 °F 70% 29.95 in 7.0 mi West 16.1 mph 19.6 mph N/A   Overcast
1:15 AM 11.1 °F -2.4 °F 3.7 °F 72% 29.96 in 7.0 mi West 10.4 mph - N/A   Overcast
1:35 AM 11.1 °F -3.2 °F 4.3 °F 74% 29.96 in 7.0 mi West 11.5 mph 18.4 mph N/A   Overcast
1:56 AM 10.8 °F -3.6 °F 4.5 °F 76% 29.96 in 7.0 mi West 11.5 mph 17.3 mph N/A   Overcast
2:15 AM 10.4 °F -3.3 °F 4.8 °F 78% 29.95 in 4.0 mi West 10.4 mph - N/A Snow Light Snow
2:35 AM 9.3 °F -3.8 °F 4.5 °F 81% 29.95 in 7.0 mi West 9.2 mph - N/A Snow Light Snow
2:55 AM 9.0 °F -2.2 °F 4.8 °F 83% 29.95 in 4.0 mi West 6.9 mph - N/A Snow Light Snow
3:15 AM 8.6 °F -4.7 °F 4.8 °F 85% 29.94 in 10.0 mi West 9.2 mph - N/A Snow Light Snow
3:36 AM 8.6 °F -4.7 °F 4.8 °F 85% 29.95 in 5.0 mi West 9.2 mph - N/A Snow Light Snow
3:55 AM 8.4 °F -2.8 °F 4.1 °F 83% 29.95 in 10.0 mi West 6.9 mph - N/A   Scattered Clouds
4:15 AM 8.1 °F -4.3 °F 3.6 °F 82% 29.95 in 10.0 mi West 8.1 mph - N/A   Scattered Clouds
4:35 AM 7.7 °F -4.8 °F 3.2 °F 82% 29.96 in 7.0 mi West 8.1 mph - N/A   Scattered Clouds
4:55 AM 7.3 °F -2.8 °F 2.8 °F 82% 29.96 in 10.0 mi WSW 5.8 mph - N/A   Clear
5:16 AM 6.8 °F -3.5 °F 3.0 °F 84% 29.96 in 10.0 mi WSW 5.8 mph - N/A   Clear
5:35 AM 6.8 °F -3.5 °F 3.2 °F 85% 29.97 in 10.0 mi West 5.8 mph - N/A   Clear
5:55 AM 6.8 °F -4.8 °F 3.0 °F 84% 29.97 in 10.0 mi West 6.9 mph - N/A   Clear
6:16 AM 7.3 °F -6.2 °F 3.0 °F 82% 29.97 in 10.0 mi West 9.2 mph - N/A   Mostly Cloudy
6:35 AM 7.3 °F -6.2 °F 3.0 °F 82% 29.97 in 10.0 mi West 9.2 mph - N/A   Scattered Clouds
6:55 AM 7.2 °F -5.4 °F 2.7 °F 82% 29.98 in 10.0 mi West 8.1 mph - N/A   Clear
7:16 AM 7.2 °F -6.4 °F 2.5 °F 81% 29.98 in 10.0 mi West 9.2 mph - N/A   Clear
7:35 AM 7.2 °F -7.3 °F 2.5 °F 81% 29.98 in 10.0 mi West 10.4 mph - N/A   Scattered Clouds
7:55 AM 7.0 °F -4.5 °F 2.3 °F 81% 29.99 in 10.0 mi West 6.9 mph - N/A   Mostly Cloudy
8:16 AM 7.7 °F -6.6 °F 2.5 °F 79% 30.00 in 10.0 mi West 10.4 mph - N/A   Overcast
8:35 AM 8.2 °F -7.5 °F 2.7 °F 78% 30.01 in 10.0 mi West 12.7 mph 16.1 mph N/A   Overcast
8:55 AM 9.0 °F -4.2 °F 3.0 °F 77% 30.01 in 10.0 mi West 9.2 mph - N/A   Scattered Clouds
9:15 AM 10.0 °F -5.2 °F 3.0 °F 73% 30.01 in 10.0 mi WNW 12.7 mph 16.1 mph N/A   Clear
9:35 AM 10.6 °F -6.9 °F 2.8 °F 71% 30.01 in 10.0 mi West 17.3 mph 23.0 mph N/A   Clear
9:56 AM 10.4 °F -8.2 °F 2.3 °F 70% 30.01 in 10.0 mi West 19.6 mph 27.6 mph N/A   Clear
10:16 AM 11.7 °F -3.2 °F 2.5 °F 67% 30.02 in 10.0 mi WNW 12.7 mph 21.9 mph N/A   Scattered Clouds
10:35 AM 12.7 °F -3.0 °F 1.8 °F 62% 30.02 in 10.0 mi West 15.0 mph 21.9 mph N/A   Mostly Cloudy
10:55 AM 12.4 °F -5.1 °F 0.7 °F 60% 30.02 in 7.0 mi West 18.4 mph 25.3 mph N/A   Overcast
11:15 AM 12.9 °F -3.9 °F 0.3 °F 57% 30.03 in 7.0 mi West 17.3 mph 25.3 mph N/A   Mostly Cloudy
11:35 AM 12.2 °F -4.8 °F -0.6 °F 57% 30.03 in 7.0 mi West 17.3 mph 25.3 mph N/A   Overcast
11:56 AM 12.7 °F -3.0 °F 0.3 °F 58% 30.03 in 10.0 mi NW 15.0 mph 21.9 mph N/A   Overcast
12:15 PM 11.1 °F -5.7 °F -1.3 °F 57% 30.04 in 10.0 mi WNW 16.1 mph - N/A   Overcast
12:35 PM 11.5 °F -5.2 °F -0.9 °F 57% 30.04 in 10.0 mi WNW 16.1 mph 23.0 mph N/A   Overcast
12:56 PM 13.5 °F -1.5 °F 0.3 °F 56% 30.03 in 10.0 mi West 13.8 mph 19.6 mph N/A   Overcast
1:15 PM 12.7 °F -3.6 °F -0.0 °F 57% 30.04 in 10.0 mi West 16.1 mph 20.7 mph N/A   Overcast
1:35 PM 13.1 °F -2.6 °F 0.3 °F 57% 30.04 in 10.0 mi West 15.0 mph 23.0 mph N/A   Overcast
1:56 PM 12.6 °F -3.8 °F 1.4 °F 61% 30.04 in 5.0 mi West 16.1 mph - N/A   Haze
2:15 PM 13.1 °F -3.7 °F 1.4 °F 60% 30.05 in 10.0 mi West 17.3 mph 24.2 mph N/A   Overcast
2:35 PM 12.2 °F -4.3 °F 1.9 °F 64% 30.05 in 2.5 mi WNW 16.1 mph 23.0 mph N/A   Haze
2:55 PM 13.1 °F 0.1 °F 3.7 °F 66% 30.05 in 1.2 mi West 10.4 mph - N/A Snow Light Snow
3:15 PM 12.9 °F -4.9 °F 3.2 °F 65% 30.06 in 3.0 mi WNW 19.6 mph 23.0 mph N/A   Haze
3:36 PM 12.4 °F -2.9 °F 3.4 °F 67% 30.07 in 4.0 mi WNW 13.8 mph 21.9 mph N/A   Haze
3:55 PM 11.3 °F -3.6 °F 5.9 °F 79% 30.07 in 1.0 mi WNW 12.7 mph - N/A Snow Light Snow
4:16 PM 11.3 °F -3.6 °F 5.4 °F 77% 30.08 in 1.0 mi WNW 12.7 mph 20.7 mph N/A Snow Light Snow
4:35 PM 11.1 °F -5.7 °F 6.3 °F 81% 30.08 in 0.8 mi WNW 16.1 mph 19.6 mph N/A Snow Light Snow
4:55 PM 10.9 °F -5.4 °F 5.0 °F 77% 30.08 in 2.0 mi WNW 15.0 mph - N/A   Haze
5:16 PM 10.4 °F -4.8 °F 4.6 °F 78% 30.09 in 4.0 mi West 12.7 mph - N/A   Haze
5:35 PM 10.0 °F -6.5 °F 3.4 °F 74% 30.10 in 5.0 mi West 15.0 mph - N/A   Haze
5:55 PM 9.5 °F -6.6 °F 1.9 °F 71% 30.09 in 10.0 mi West 13.8 mph 18.4 mph N/A   Clear
6:16 PM 9.0 °F -5.9 °F 1.4 °F 71% 30.10 in 10.0 mi WNW 11.5 mph 20.7 mph N/A   Clear
6:35 PM 8.4 °F -5.7 °F 0.3 °F 70% 30.10 in 10.0 mi West 10.4 mph - N/A   Clear
6:55 PM 8.2 °F -6.0 °F 0.1 °F 70% 30.10 in 10.0 mi West 10.4 mph 16.1 mph N/A   Clear
7:16 PM 7.0 °F -5.7 °F -0.4 °F 72% 30.11 in 10.0 mi West 8.1 mph - N/A   Clear
7:35 PM 6.3 °F -6.5 °F -0.9 °F 72% 30.11 in 10.0 mi West 8.1 mph - N/A   Clear
7:55 PM 5.7 °F -7.2 °F -1.3 °F 73% 30.11 in 10.0 mi West 8.1 mph - N/A   Clear
8:15 PM 5.0 °F -5.6 °F -1.7 °F 74% 30.11 in 10.0 mi West 5.8 mph - N/A   Scattered Clouds
8:35 PM 4.5 °F -6.3 °F -2.4 °F 73% 30.11 in 10.0 mi West 5.8 mph - N/A   Clear
8:56 PM 4.1 °F -6.7 °F -2.2 °F 75% 30.11 in 10.0 mi WSW 5.8 mph - N/A   Clear
9:15 PM 4.1 °F -5.1 °F -1.8 °F 76% 30.11 in 10.0 mi WSW 4.6 mph - N/A   Clear
9:35 PM 3.2 °F -7.8 °F -2.4 °F 78% 30.11 in 10.0 mi WSW 5.8 mph - N/A   Clear
9:56 PM 3.9 °F -8.2 °F -1.8 °F 77% 30.11 in 10.0 mi WSW 6.9 mph - N/A   Mostly Cloudy
10:15 PM 5.0 °F -8.1 °F -1.1 °F 76% 30.12 in 10.0 mi WSW 8.1 mph - N/A   Overcast
10:35 PM 6.4 °F -8.2 °F 0.9 °F 78% 30.11 in 7.0 mi West 10.4 mph - N/A   Overcast
10:55 PM 7.7 °F -3.7 °F 2.3 °F 79% 30.11 in 10.0 mi West 6.9 mph - N/A   Overcast
11:16 PM 9.1 °F -3.0 °F 3.2 °F 77% 30.11 in 10.0 mi West 8.1 mph - N/A   Overcast
11:35 PM 9.7 °F -3.3 °F 3.6 °F 76% 30.11 in 10.0 mi West 9.2 mph - N/A   Overcast
11:55 PM 9.5 °F -2.6 °F 3.9 °F 78% 30.10 in 7.0 mi WNW 8.1 mph - N/A   Overcast